Location: Newark
(48.3453°N, 0.5589°E)
Time: 04:51:46
(UTC+00:00)

A-11 Canister half - Pass Details

Date: 08 December 2019
Orbit: 1517 x 1683 km, 47.2° (Epoch: 21 January)

Event Time Altitude Azimuth Distance (km) Brightness Sun altitude
Rises 10:47:50 0° 191° (S) 4,721 12.7 17.6°
Reaches altitude 10° 10:51:40 10° 178° (S) 3,767 13.1 17.8°
Maximum altitude 10:58:39 23° 130° (SE) 2,903 11.5 18.0°
Drops below altitude 10° 11:05:49 10° 83° (E) 3,878 11.2 18.3°
Sets 11:09:48 0° 70° (ENE) 4,892 11.5 18.4°
